Weather History for Augusta, ME

Change the Weather History Date:

Monday, December 2, 2013

  Actual Average Record
Temperature  
Mean Temperature 31 °F 32 °F  
Max Temperature 32 °F 39 °F 53 °F (1996)
Min Temperature 30 °F 25 °F 12 °F (2002)
Degree Days  
Heating Degree Days 34 34  
Month to date heating degree days 67  
Since 1 July heating degree days 1615  
Cooling Degree Days 0 0  
Month to date cooling degree days 0  
Year to date cooling degree days 388  
Moisture  
Dew Point 31 °F    
Average Humidity 98    
Maximum Humidity 100    
Minimum Humidity 96    
Precipitation  
Precipitation 0.28 in 0.12 in 1.50 in (1996)
Month to date precipitation 0.24  
Year to date precipitation 38.88  
Sea Level Pressure  
Sea Level Pressure 30.00 in    
Wind  
Wind Speed 10 mph (North)    
Max Wind Speed 14 mph    
Max Gust Speed -    
Visibility 3 miles    
Events Fog , Rain , Snow    
T = Trace of Precipitation, MM = Missing Value Source: NWS Daily Summary

Daily Weather History Graph

Daily Weather History Graph

Search for Another Location

Airport:

Trip Planner

Search our weather history database for the weather conditions in past years. The results will help you decide how hot, cold, wet, or windy it might be!

Date:

Astronomy

Dec. 02, 2013 Rise Set
Actual Time 6:56 AM EST 4:00 PM EST
Civil Twilight 6:23 AM EST 4:33 PM EST
Nautical Twilight 5:47 AM EST 5:09 PM EST
Astronomical Twilight 5:12 AM EST 5:44 PM EST
Moon 6:16 AM EST (12/2) 4:02 PM EST (12/2)
Length of Visible Light 10h 10m
Length of Day
9h 04m
Waning Crescent, 0% of the Moon is Illuminated
Dec 2
Waning Crescent
Dec 2
New
Dec 9
First Quarter
Dec 17
Full
Dec 25
Last Quarter

Hourly Weather History & Observations

Time (EST) Temp. Windchill Dew Point Humidity Pressure Visibility Wind Dir Wind Speed Gust Speed Precip Events Conditions
12:53 AM 30.0 °F 21.7 °F 30.0 °F 100% 30.09 in 1.2 mi North 9.2 mph - 0.06 in Snow Light Snow
1:23 AM 30.0 °F 21.1 °F 28.9 °F 96% 30.08 in 1.0 mi North 10.4 mph - 0.03 in Snow Light Snow
1:53 AM 30.0 °F 21.7 °F 28.9 °F 96% 30.09 in 1.8 mi North 9.2 mph - 0.05 in Snow Light Snow
1:59 AM 30.0 °F 21.1 °F 30.0 °F 100% 30.07 in 3.0 mi NNE 10.4 mph - 0.01 in Snow Light Snow
2:23 AM 30.9 °F 22.8 °F 30.0 °F 96% 30.06 in 4.0 mi North 9.2 mph - 0.03 in Snow Light Snow
2:45 AM 30.9 °F 22.8 °F 30.0 °F 96% 30.06 in 2.5 mi North 9.2 mph - 0.04 in Snow Light Snow
2:53 AM 30.0 °F 21.1 °F 30.0 °F 100% 30.07 in 3.0 mi North 10.4 mph - 0.05 in Snow Light Snow
3:21 AM 30.0 °F 20.5 °F 28.9 °F 96% 30.04 in 7.0 mi North 11.5 mph - 0.01 in   Overcast
3:49 AM 30.2 °F 19.8 °F 30.2 °F 100% 30.03 in 10.0 mi NNE 13.8 mph - 0.01 in   Overcast
3:53 AM 30.9 °F 21.7 °F 30.0 °F 96% 30.05 in 9.0 mi NNE 11.5 mph - 0.01 in Rain Light Freezing Rain
4:02 AM 30.9 °F 22.2 °F 30.0 °F 96% 30.03 in 8.0 mi NNE 10.4 mph - 0.00 in Rain Light Freezing Rain
4:15 AM 30.9 °F 21.7 °F 30.0 °F 96% 30.03 in 7.0 mi North 11.5 mph - 0.00 in Rain Light Freezing Rain
4:53 AM 30.9 °F 21.7 °F 30.0 °F 96% 30.04 in 8.0 mi North 11.5 mph - 0.01 in Rain Light Freezing Rain
5:53 AM 30.9 °F 21.2 °F 30.0 °F 96% 30.04 in 7.0 mi North 12.7 mph - 0.02 in Rain Light Freezing Rain
6:27 AM 30.9 °F 21.2 °F 30.0 °F 96% 30.02 in 3.0 mi NNE 12.7 mph - 0.05 in Rain Light Freezing Rain
6:36 AM 30.9 °F 22.2 °F 30.9 °F 100% 30.02 in 4.0 mi North 10.4 mph - 0.05 in Rain Light Freezing Rain
6:53 AM 30.9 °F 22.8 °F 30.0 °F 96% 30.03 in 6.0 mi North 9.2 mph - 0.05 in Rain Light Freezing Rain
7:09 AM 30.9 °F 22.2 °F 30.9 °F 100% 30.01 in 6.0 mi North 10.4 mph - 0.00 in   Overcast
7:53 AM 30.9 °F 22.8 °F 30.9 °F 100% 30.03 in 6.0 mi NNE 9.2 mph - 0.00 in   Overcast
8:31 AM 30.9 °F 21.7 °F 30.9 °F 100% 30.01 in 3.0 mi NNE 11.5 mph - 0.01 in Rain Light Freezing Rain
8:49 AM 30.2 °F 20.8 °F 30.2 °F 100% 30.02 in 2.5 mi NNE 11.5 mph - 0.01 in Rain Light Freezing Rain
8:53 AM 32.0 °F 23.6 °F 30.9 °F 96% 30.03 in 2.5 mi NNE 10.4 mph - 0.01 in Rain Light Freezing Rain
9:13 AM 32.0 °F 23.6 °F 30.9 °F 96% 30.01 in 3.0 mi NNE 10.4 mph - 0.01 in Rain Light Freezing Rain
9:27 AM 32.0 °F 23.6 °F 30.9 °F 96% 30.01 in 4.0 mi NNE 10.4 mph - 0.01 in   Overcast
9:53 AM 32.0 °F 23.6 °F 30.9 °F 96% 30.02 in 2.5 mi North 10.4 mph - 0.01 in   Overcast
10:02 AM 32.0 °F 24.2 °F 30.9 °F 96% 30.00 in 3.0 mi North 9.2 mph - N/A   Overcast
10:12 AM 32.0 °F 23.6 °F 30.9 °F 96% 30.00 in 2.5 mi North 10.4 mph - 0.00 in   Overcast
10:53 AM 32.0 °F 23.6 °F 30.9 °F 96% 29.99 in 1.8 mi NNE 10.4 mph - 0.00 in   Overcast
11:04 AM 32.0 °F 23.6 °F 30.9 °F 96% 29.98 in 2.0 mi NNE 10.4 mph - 0.00 in   Overcast
11:21 AM 32.0 °F 23.6 °F 30.9 °F 96% 29.98 in 1.8 mi North 10.4 mph - 0.00 in   Overcast
11:40 AM 32.0 °F 23.6 °F 30.9 °F 96% 29.98 in 2.0 mi North 10.4 mph - 0.00 in   Overcast
11:53 AM 32.0 °F 23.6 °F 30.9 °F 96% 29.99 in 2.0 mi North 10.4 mph - 0.01 in   Overcast
12:53 PM 32.0 °F 24.8 °F 32.0 °F 100% 29.98 in 2.5 mi North 8.1 mph - 0.00 in   Overcast
1:53 PM 32.0 °F 24.2 °F 32.0 °F 100% 29.97 in 2.5 mi NNE 9.2 mph - N/A   Overcast
2:44 PM 32.0 °F 24.2 °F 32.0 °F 100% 29.95 in 1.8 mi North 9.2 mph - N/A   Overcast
2:53 PM 32.0 °F 24.2 °F 32.0 °F 100% 29.96 in 1.5 mi North 9.2 mph - N/A   Overcast
3:53 PM 32.0 °F 23.6 °F 32.0 °F 100% 29.96 in 1.2 mi North 10.4 mph - N/A   Overcast
4:08 PM 32.0 °F 24.2 °F 32.0 °F 100% 29.94 in 2.0 mi North 9.2 mph - N/A   Overcast
4:22 PM 32.0 °F 23.6 °F 32.0 °F 100% 29.94 in 1.8 mi North 10.4 mph - N/A   Overcast
4:53 PM 32.0 °F 23.6 °F 32.0 °F 100% 29.96 in 0.8 mi North 10.4 mph - N/A   Mist
5:53 PM 32.0 °F 24.8 °F 32.0 °F 100% 29.96 in 0.5 mi North 8.1 mph - N/A Fog Fog
6:38 PM 32.0 °F 24.8 °F 32.0 °F 100% 29.96 in 0.2 mi North 8.1 mph - 0.00 in Fog Fog
6:53 PM 32.0 °F 24.8 °F 32.0 °F 100% 29.97 in 0.2 mi North 8.1 mph - 0.00 in Fog Fog
7:53 PM 32.0 °F 25.6 °F 32.0 °F 100% 29.96 in 0.2 mi North 6.9 mph - N/A Fog Fog
8:04 PM 32.0 °F 24.8 °F 32.0 °F 100% 29.95 in 0.5 mi North 8.1 mph - N/A Fog Fog
8:19 PM 32.0 °F 24.8 °F 32.0 °F 100% 29.95 in 0.2 mi North 8.1 mph - N/A Fog Fog
8:28 PM 32.0 °F 25.6 °F 32.0 °F 100% 29.95 in 0.5 mi North 6.9 mph - N/A Fog Fog
8:53 PM 32.0 °F 24.2 °F 32.0 °F 100% 29.96 in 0.5 mi North 9.2 mph - N/A Fog Fog
9:53 PM 32.0 °F 25.6 °F 32.0 °F 100% 29.96 in 0.5 mi North 6.9 mph - N/A Fog Fog
10:53 PM 32.0 °F 24.8 °F 32.0 °F 100% 29.95 in 0.5 mi North 8.1 mph - N/A Fog Fog
11:53 PM 32.0 °F 24.8 °F 32.0 °F 100% 29.93 in 0.8 mi North 8.1 mph - 0.00 in   Mist